TimePDT,TemperatureF,Dew PointF,Humidity,Sea Level PressureIn,VisibilityMPH,Wind Direction,Wind SpeedMPH,Gust SpeedMPH,PrecipitationIn,Events,Conditions,WindDirDegrees,DateUTC
12:53 AM,51.1,45.0,80,29.94,10.0,Calm,Calm,-,0.00,Rain,Light Rain,0,2013-05-16 07:53:00
1:53 AM,50.0,46.9,89,29.95,10.0,Calm,Calm,-,0.02,Rain,Light Rain,0,2013-05-16 08:53:00
2:53 AM,48.0,46.0,93,29.95,10.0,Calm,Calm,-,0.06,Rain,Light Rain,0,2013-05-16 09:53:00
3:53 AM,48.0,46.9,96,29.94,10.0,ENE,4.6,-,0.02,Rain,Light Rain,60,2013-05-16 10:53:00
4:53 AM,48.0,46.0,93,29.94,10.0,Calm,Calm,-,0.02,Rain,Light Rain,0,2013-05-16 11:53:00
5:53 AM,48.0,46.0,93,29.95,10.0,Calm,Calm,-,0.01,Rain,Light Rain,0,2013-05-16 12:53:00
6:53 AM,48.9,46.9,93,29.96,10.0,Calm,Calm,-,0.01,Rain,Light Rain,0,2013-05-16 13:53:00
7:53 AM,50.0,46.0,86,29.96,10.0,Calm,Calm,-,0.00,,Overcast,0,2013-05-16 14:53:00
8:42 AM,50.0,46.4,87,29.97,10.0,Calm,Calm,-,N/A,,Overcast,0,2013-05-16 15:42:00
8:53 AM,50.0,46.9,89,29.96,10.0,Calm,Calm,-,N/A,,Overcast,0,2013-05-16 15:53:00
9:03 AM,50.0,46.4,87,29.96,10.0,Calm,Calm,-,N/A,,Overcast,0,2013-05-16 16:03:00
9:12 AM,50.0,46.4,87,29.97,10.0,Calm,Calm,-,N/A,,Overcast,0,2013-05-16 16:12:00
9:53 AM,52.0,46.9,83,29.96,10.0,Calm,Calm,-,N/A,,Overcast,0,2013-05-16 16:53:00
10:49 AM,53.6,46.4,77,29.97,10.0,Calm,Calm,-,N/A,,Overcast,0,2013-05-16 17:49:00
10:53 AM,53.1,46.9,80,29.96,10.0,Calm,Calm,-,N/A,,Overcast,0,2013-05-16 17:53:00
11:53 AM,55.9,46.9,72,29.95,10.0,Variable,3.5,-,N/A,,Mostly Cloudy,0,2013-05-16 18:53:00
12:48 PM,55.4,46.4,72,29.94,10.0,North,6.9,-,N/A,,Overcast,10,2013-05-16 19:48:00
12:53 PM,55.9,46.0,69,29.94,10.0,North,4.6,-,N/A,,Overcast,10,2013-05-16 19:53:00
1:53 PM,57.0,46.0,67,29.93,10.0,North,-9999.0,-,N/A,,Overcast,0,2013-05-16 20:53:00
2:53 PM,61.0,46.0,58,29.91,10.0,Variable,3.5,-,N/A,,Mostly Cloudy,0,2013-05-16 21:53:00
3:53 PM,62.1,42.1,48,29.90,10.0,Calm,Calm,-,N/A,,Clear,0,2013-05-16 22:53:00
4:53 PM,60.1,45.0,57,29.89,10.0,South,8.1,-,N/A,,Mostly Cloudy,180,2013-05-16 23:53:00
5:53 PM,57.0,45.0,64,29.89,10.0,Calm,Calm,-,N/A,,Overcast,0,2013-05-17 00:53:00
7:53 PM,53.1,46.9,80,29.90,10.0,ENE,4.6,-,N/A,,Mostly Cloudy,60,2013-05-17 02:53:00
8:53 PM,51.1,45.0,80,29.90,10.0,Calm,Calm,-,N/A,,Mostly Cloudy,0,2013-05-17 03:53:00
9:53 PM,48.0,45.0,89,29.91,10.0,Calm,Calm,-,N/A,,Mostly Cloudy,0,2013-05-17 04:53:00
10:53 PM,44.1,42.1,93,29.91,10.0,NNE,3.5,-,N/A,,Clear,30,2013-05-17 05:53:00
11:53 PM,46.0,43.0,89,29.91,10.0,Calm,Calm,-,N/A,,Clear,0,2013-05-17 06:53:00